LMML

Luqa

Airport
ICAO code
LMML
Summary
ICAO Region
EUR
ICAO Territory
Location

Luqa,

Coordinates
35° 51' 25" N , 14° 28' 40" E
KCC
Metar
Observation
LMML 070115Z 11005KT 9999 FEW038 09/03 Q1025 NOSIG
Station
Luqa
Date/Time
2023-02-07 01:15:00
Wind direction
110°
Wind speed
05 kts
Lowest cloud amount
few clouds
Temperature
9°C
Dew point
3°C
Humidity
66%
QNH
1025 hPa
Weather condition
n/a

Description

International airport serving the island of Malta.

Climatology

Dry-summer subtropical ”Mediterranean" climate (Köppen climate classification Csa) - characterized by hot, dry summers and mild winters. During the summer, subtropical high pressure cells dominate, making rainfall unlikely except for the occasional thunderstorm. In the winter, periodic storms bring rain.

Runways

Designator Length Width Surface Rops
5/23 2377 45 ASP Yes/Yes
13/31 3544 60 ASP Yes/Yes

Airport map

Aerial View

SKYbrary Partners:

Safety knowledge contributed by: